Location: Chapleau
(47.8423°N, 83.4026°W)
Time: 22:36:51
(UTC-04:00)

ISS - Visible Passes

Search period start: 22 July 2019 00:00
Search period end: 01 August 2019 00:00
Orbit: 409 x 418 km, 51.6° (Epoch: 23 July)

Date Brightness Start Highest point End Pass type
(mag) Time Alt. Az. Time Alt. Az. Time Alt. Az.
22 Jul -2.5 00:01:03 10° WNW 00:04:15 41° N 00:07:26 10° ENE visible
22 Jul -3.0 01:37:54 10° WNW 01:40:31 49° NW 01:40:31 49° NW visible
22 Jul -2.5 23:11:37 10° W 23:14:50 43° N 23:18:03 10° ENE visible
23 Jul -3.1 00:48:36 10° WNW 00:51:53 54° NNE 00:52:23 48° NE visible
23 Jul -2.7 22:22:11 10° W 22:25:26 48° NNW 22:28:42 10° ENE visible
23 Jul -2.8 23:59:16 10° WNW 00:02:30 45° N 00:04:24 21° ENE visible
24 Jul -1.7 01:35:59 10° WNW 01:37:11 20° WNW 01:37:11 20° WNW visible
24 Jul -2.6 23:09:52 10° WNW 23:13:05 41° N 23:16:17 10° ENE visible
25 Jul -3.2 00:46:39 10° WNW 00:49:16 52° WNW 00:49:16 52° WNW visible
25 Jul -2.5 22:20:27 10° WNW 22:23:39 41° N 22:26:51 10° ENE visible
25 Jul -3.5 23:57:19 10° WNW 00:00:39 65° NNE 00:01:24 47° ENE visible
26 Jul -3.0 23:07:58 10° WNW 23:11:15 51° NNE 23:13:33 17° E visible
27 Jul -2.0 00:44:43 10° WNW 00:46:22 25° W 00:46:22 25° W visible
27 Jul -2.7 22:18:34 10° WNW 22:21:49 44° N 22:25:02 10° E visible
27 Jul -3.8 23:55:19 10° WNW 23:58:33 71° SW 23:58:33 71° SW visible
28 Jul -3.8 23:05:56 10° WNW 23:09:17 80° NNE 23:10:46 30° ESE visible
29 Jul -1.1 00:43:03 10° W 00:43:35 13° W 00:43:35 13° W visible
29 Jul -3.4 22:16:33 10° WNW 22:19:53 60° NNE 22:23:01 11° E visible
29 Jul -2.5 23:53:24 10° WNW 23:55:50 31° WSW 23:55:50 31° WSW visible
30 Jul -3.5 23:03:54 10° WNW 23:07:10 52° SSW 23:08:06 37° SSE visible
31 Jul -3.8 22:14:27 10° WNW 22:17:48 80° SSW 22:20:24 16° ESE visible
31 Jul -1.4 23:51:57 10° W 23:53:13 15° WSW 23:53:13 15° WSW visible
